DAL9575 SPJC-SCFA

Flight info

Callsign DAL9575
Flight time 2h 11m
Altitude 37000
Route SCO UL550 XONOG/N0374F230 Q803 ENLUS ENLUS5A
Aircraft A320/M-SDE3FGHIRWY/LB1

Departure

Time 2026-04-26 12:45
Airport Jorge Chávez International Airport (SPJC)

Arrival

Time 2026-04-26 14:56
Airport Andrés Sabella Gálvez International Airport (SCFA)
Time Latitude Longitude Altitude Speed Heading
2026-04-26 12:15 -12.02616 -77.10825 69 ft 0 kts 66°
2026-04-26 12:34 -12.02618 -77.10828 78 ft 3 kts 65°
2026-04-26 12:35 -12.02631 -77.10852 71 ft 4 kts 63°
2026-04-26 12:35 -12.02641 -77.10877 75 ft 4 kts 82°
2026-04-26 12:35 -12.02639 -77.10902 71 ft 4 kts 128°
2026-04-26 12:35 -12.02630 -77.10910 75 ft 0 kts 154°
2026-04-26 12:39 -12.02636 -77.10908 78 ft 5 kts 154°
2026-04-26 12:39 -12.02663 -77.10895 77 ft 4 kts 156°
2026-04-26 12:39 -12.02705 -77.10873 88 ft 10 kts 151°
2026-04-26 12:39 -12.02775 -77.10832 85 ft 11 kts 154°
2026-04-26 12:40 -12.02836 -77.10808 82 ft 8 kts 165°
2026-04-26 12:40 -12.02881 -77.10805 84 ft 5 kts 183°
2026-04-26 12:40 -12.02912 -77.10810 86 ft 6 kts 190°
2026-04-26 12:40 -12.02966 -77.10819 85 ft 10 kts 184°
2026-04-26 12:41 -12.03021 -77.10809 86 ft 7 kts 160°
2026-04-26 12:41 -12.03072 -77.10785 90 ft 10 kts 155°
2026-04-26 12:41 -12.03147 -77.10749 91 ft 11 kts 155°
2026-04-26 12:41 -12.03207 -77.10719 92 ft 8 kts 153°
2026-04-26 12:42 -12.03247 -77.10699 92 ft 5 kts 153°
2026-04-26 12:42 -12.03310 -77.10668 95 ft 16 kts 153°
2026-04-26 12:42 -12.03408 -77.10617 96 ft 14 kts 153°
2026-04-26 12:42 -12.03487 -77.10579 98 ft 11 kts 154°
2026-04-26 12:43 -12.03547 -77.10575 100 ft 7 kts 198°
2026-04-26 12:43 -12.03579 -77.10602 99 ft 7 kts 235°
2026-04-26 12:43 -12.03601 -77.10660 102 ft 11 kts 262°
2026-04-26 12:43 -12.03586 -77.10730 100 ft 10 kts 297°
2026-04-26 12:44 -12.03526 -77.10769 100 ft 11 kts 333°
2026-04-26 12:44 -12.03434 -77.10815 98 ft 30 kts 334°
2026-04-26 12:44 -12.03008 -77.11026 89 ft 102 kts 334°
2026-04-26 12:44 -12.02199 -77.11429 62 ft 155 kts 334°
2026-04-26 12:45 -12.01134 -77.11932 422 ft 170 kts 336°
2026-04-26 12:45 -12.00103 -77.12506 1165 ft 170 kts 318°
2026-04-26 12:45 -11.99523 -77.13532 1850 ft 172 kts 279°
2026-04-26 12:45 -11.99771 -77.14790 2163 ft 197 kts 242°
2026-04-26 12:46 -12.00499 -77.16087 2466 ft 222 kts 242°
2026-04-26 12:46 -12.01164 -77.17593 2837 ft 245 kts 250°
2026-04-26 12:46 -12.01737 -77.19314 2993 ft 260 kts 252°
2026-04-26 12:46 -12.02268 -77.21081 3001 ft 259 kts 253°
2026-04-26 12:47 -12.02791 -77.22852 3010 ft 261 kts 253°
2026-04-26 12:47 -12.03317 -77.24610 2998 ft 257 kts 252°
2026-04-26 12:47 -12.03847 -77.26339 2998 ft 259 kts 252°
2026-04-26 12:47 -12.04390 -77.28088 3000 ft 258 kts 252°
2026-04-26 12:48 -12.04990 -77.29816 3003 ft 257 kts 242°
2026-04-26 12:48 -12.06178 -77.31139 3007 ft 256 kts 209°
2026-04-26 12:48 -12.07907 -77.31553 3305 ft 264 kts 174°
2026-04-26 12:48 -12.09700 -77.31135 4301 ft 265 kts 164°
2026-04-26 12:49 -12.11482 -77.30636 5227 ft 267 kts 165°
2026-04-26 12:49 -12.13280 -77.30127 6065 ft 270 kts 165°
2026-04-26 12:49 -12.15105 -77.29609 6836 ft 275 kts 165°
2026-04-26 12:49 -12.16966 -77.29081 7564 ft 280 kts 165°
2026-04-26 12:50 -12.18860 -77.28542 8273 ft 285 kts 165°
2026-04-26 12:50 -12.20786 -77.27994 8962 ft 289 kts 165°
2026-04-26 12:50 -12.22740 -77.27436 9637 ft 293 kts 164°
2026-04-26 12:50 -12.24716 -77.26873 10337 ft 296 kts 164°
2026-04-26 12:51 -12.26744 -77.26296 10718 ft 313 kts 164°
2026-04-26 12:51 -12.28919 -77.25677 10880 ft 335 kts 164°
2026-04-26 12:51 -12.31206 -77.25028 11337 ft 345 kts 164°
2026-04-26 12:51 -12.33535 -77.24368 11976 ft 349 kts 164°
2026-04-26 12:52 -12.35878 -77.23700 12650 ft 351 kts 164°
2026-04-26 12:52 -12.38245 -77.23025 13281 ft 355 kts 164°
2026-04-26 12:52 -12.40636 -77.22345 13895 ft 358 kts 164°
2026-04-26 12:52 -12.43016 -77.21667 14484 ft 361 kts 164°
2026-04-26 12:53 -12.45446 -77.20974 15087 ft 364 kts 164°
2026-04-26 12:53 -12.47895 -77.20278 15664 ft 367 kts 164°
2026-04-26 12:53 -12.50366 -77.19575 16230 ft 370 kts 164°
2026-04-26 12:53 -12.52855 -77.18869 16789 ft 373 kts 163°
2026-04-26 12:54 -12.55365 -77.18156 17333 ft 376 kts 163°
2026-04-26 12:54 -12.57896 -77.17436 17862 ft 379 kts 163°
2026-04-26 12:54 -12.60444 -77.16709 18382 ft 381 kts 163°
2026-04-26 12:54 -12.63009 -77.15972 18883 ft 384 kts 163°
2026-04-26 12:55 -12.65591 -77.15229 19374 ft 387 kts 163°
2026-04-26 12:55 -12.68196 -77.14483 19867 ft 390 kts 163°
2026-04-26 12:55 -12.70818 -77.13735 20341 ft 392 kts 164°
2026-04-26 12:55 -12.73458 -77.12985 20783 ft 395 kts 164°
2026-04-26 12:56 -12.76115 -77.12228 21219 ft 398 kts 164°
2026-04-26 12:56 -12.78790 -77.11464 21636 ft 401 kts 163°
2026-04-26 12:56 -12.81482 -77.10696 22047 ft 403 kts 164°
2026-04-26 12:56 -12.84188 -77.09925 22453 ft 405 kts 164°
2026-04-26 12:57 -12.86914 -77.09148 22855 ft 407 kts 164°
2026-04-26 12:57 -12.89649 -77.08366 23240 ft 409 kts 164°
2026-04-26 12:57 -12.92399 -77.07578 23606 ft 412 kts 164°
2026-04-26 12:58 -12.97947 -77.05985 24305 ft 416 kts 164°
2026-04-26 12:58 -13.00744 -77.05179 24648 ft 418 kts 164°
2026-04-26 12:58 -13.03511 -77.04360 24968 ft 421 kts 161°
2026-04-26 12:58 -13.06193 -77.03148 25288 ft 423 kts 150°
2026-04-26 12:59 -13.08617 -77.01441 25607 ft 424 kts 139°
2026-04-26 12:59 -13.10706 -76.99299 25916 ft 426 kts 130°
2026-04-26 12:59 -13.12609 -76.96957 26210 ft 428 kts 129°
2026-04-26 12:59 -13.14519 -76.94601 26516 ft 431 kts 129°
2026-04-26 13:00 -13.16438 -76.92232 26828 ft 433 kts 129°
2026-04-26 13:00 -13.18371 -76.89851 27128 ft 435 kts 129°
2026-04-26 13:00 -13.20313 -76.87466 27415 ft 437 kts 130°
2026-04-26 13:00 -13.22269 -76.85063 27695 ft 439 kts 130°
2026-04-26 13:01 -13.24232 -76.82650 27978 ft 441 kts 129°
2026-04-26 13:01 -13.26199 -76.80226 28265 ft 443 kts 129°
2026-04-26 13:01 -13.28172 -76.77789 28548 ft 445 kts 129°
2026-04-26 13:01 -13.30154 -76.75338 28824 ft 447 kts 129°
2026-04-26 13:02 -13.32152 -76.72875 29095 ft 449 kts 130°
2026-04-26 13:02 -13.34157 -76.70406 29371 ft 451 kts 130°
2026-04-26 13:02 -13.36172 -76.67926 29644 ft 453 kts 129°
2026-04-26 13:02 -13.38194 -76.65432 29909 ft 455 kts 129°
2026-04-26 13:03 -13.40192 -76.62962 30174 ft 457 kts 129°
2026-04-26 13:03 -13.42223 -76.60448 30428 ft 458 kts 129°
2026-04-26 13:03 -13.44264 -76.57925 30679 ft 460 kts 129°
2026-04-26 13:03 -13.46312 -76.55398 30915 ft 461 kts 129°
2026-04-26 13:04 -13.48363 -76.52866 31142 ft 462 kts 129°
2026-04-26 13:04 -13.50416 -76.50326 31468 ft 461 kts 129°
2026-04-26 13:04 -13.52462 -76.47793 31815 ft 460 kts 129°
2026-04-26 13:04 -13.54504 -76.45265 32167 ft 459 kts 129°
2026-04-26 13:05 -13.56541 -76.42744 32507 ft 458 kts 129°
2026-04-26 13:05 -13.58570 -76.40232 32826 ft 457 kts 129°
2026-04-26 13:05 -13.60597 -76.37720 33152 ft 456 kts 129°
2026-04-26 13:05 -13.62619 -76.35212 33471 ft 455 kts 129°
2026-04-26 13:06 -13.64637 -76.32708 33806 ft 454 kts 129°
2026-04-26 13:06 -13.66650 -76.30214 34121 ft 453 kts 129°
2026-04-26 13:06 -13.68662 -76.27724 34419 ft 452 kts 129°
2026-04-26 13:06 -13.70672 -76.25235 34690 ft 452 kts 129°
2026-04-26 13:07 -13.72685 -76.22752 34942 ft 452 kts 130°
2026-04-26 13:07 -13.74913 -76.20471 35163 ft 453 kts 140°
2026-04-26 13:07 -13.77400 -76.18477 35383 ft 453 kts 142°
2026-04-26 13:07 -13.79907 -76.16502 35601 ft 454 kts 142°
2026-04-26 13:08 -13.82409 -76.14529 35816 ft 454 kts 142°
2026-04-26 13:08 -13.84879 -76.12578 36021 ft 454 kts 142°
2026-04-26 13:08 -13.87383 -76.10600 36219 ft 454 kts 142°
2026-04-26 13:08 -13.89890 -76.08623 36400 ft 454 kts 142°
2026-04-26 13:09 -13.92400 -76.06646 36578 ft 455 kts 142°
2026-04-26 13:09 -13.94916 -76.04667 36765 ft 455 kts 142°
2026-04-26 13:09 -13.97427 -76.02692 36942 ft 454 kts 142°
2026-04-26 13:09 -13.99923 -76.00724 36989 ft 450 kts 142°
2026-04-26 13:10 -14.04866 -75.96811 36990 ft 446 kts 142°
2026-04-26 13:10 -14.09785 -75.92918 36998 ft 446 kts 142°
2026-04-26 13:11 -14.14702 -75.89024 37008 ft 446 kts 142°
2026-04-26 13:11 -14.19623 -75.85128 37017 ft 446 kts 142°
2026-04-26 13:12 -14.24509 -75.81255 37020 ft 446 kts 142°
2026-04-26 13:12 -14.29459 -75.77329 37027 ft 446 kts 142°
2026-04-26 13:13 -14.34379 -75.73427 37033 ft 446 kts 142°
2026-04-26 13:13 -14.39263 -75.69546 37043 ft 446 kts 142°
2026-04-26 13:14 -14.44181 -75.65637 37051 ft 447 kts 142°
2026-04-26 13:14 -14.49109 -75.61725 37059 ft 447 kts 142°
2026-04-26 13:15 -14.54035 -75.57819 37069 ft 447 kts 142°
2026-04-26 13:15 -14.58130 -75.54565 37079 ft 447 kts 142°
2026-04-26 13:16 -14.63890 -75.49976 37101 ft 447 kts 142°
2026-04-26 13:16 -14.68817 -75.46050 37108 ft 448 kts 142°
2026-04-26 13:17 -14.76213 -75.40153 37122 ft 448 kts 142°
2026-04-26 13:18 -14.83579 -75.34280 37139 ft 448 kts 142°
2026-04-26 13:19 -14.90976 -75.28373 37154 ft 448 kts 142°
2026-04-26 13:19 -14.95909 -75.24436 37162 ft 448 kts 142°
2026-04-26 13:20 -15.00840 -75.20495 37168 ft 448 kts 142°
2026-04-26 13:20 -15.05776 -75.16553 37175 ft 448 kts 142°
2026-04-26 13:21 -15.10709 -75.12600 37177 ft 449 kts 142°
2026-04-26 13:21 -15.15643 -75.08643 37195 ft 449 kts 142°
2026-04-26 13:22 -15.20580 -75.04685 37198 ft 449 kts 142°
2026-04-26 13:22 -15.25512 -75.00726 37208 ft 449 kts 142°
2026-04-26 13:23 -15.30451 -74.96768 37273 ft 449 kts 142°
2026-04-26 13:23 -15.35396 -74.92802 37287 ft 450 kts 142°
2026-04-26 13:24 -15.40333 -74.88823 37298 ft 449 kts 142°
2026-04-26 13:24 -15.45270 -74.84845 37307 ft 450 kts 142°
2026-04-26 13:25 -15.50216 -74.80876 37313 ft 450 kts 142°
2026-04-26 13:25 -15.55129 -74.76932 37321 ft 449 kts 142°
2026-04-26 13:26 -15.60063 -74.72958 37321 ft 449 kts 142°
2026-04-26 13:26 -15.65000 -74.68985 37322 ft 449 kts 142°
2026-04-26 13:27 -15.69938 -74.64999 37327 ft 450 kts 142°
2026-04-26 13:27 -15.74880 -74.61015 37328 ft 450 kts 142°
2026-04-26 13:28 -15.79819 -74.57024 37332 ft 450 kts 142°
2026-04-26 13:28 -15.84765 -74.53030 37336 ft 450 kts 142°
2026-04-26 13:29 -15.89709 -74.49033 37341 ft 450 kts 142°
2026-04-26 13:29 -15.94654 -74.45031 37342 ft 451 kts 142°
2026-04-26 13:30 -15.99567 -74.41052 37344 ft 451 kts 142°
2026-04-26 13:30 -16.04523 -74.37046 37357 ft 451 kts 143°
2026-04-26 13:31 -16.09475 -74.33031 37363 ft 452 kts 143°
2026-04-26 13:31 -16.14430 -74.29011 37364 ft 452 kts 143°
2026-04-26 13:32 -16.19386 -74.24986 37365 ft 452 kts 143°
2026-04-26 13:32 -16.24339 -74.20957 37364 ft 452 kts 142°
2026-04-26 13:33 -16.29294 -74.16927 37436 ft 452 kts 143°
2026-04-26 13:33 -16.33425 -74.13579 37467 ft 453 kts 143°
2026-04-26 13:34 -16.39196 -74.08882 37437 ft 453 kts 142°
2026-04-26 13:34 -16.44142 -74.04850 37302 ft 450 kts 143°
2026-04-26 13:35 -16.48266 -74.01491 37279 ft 449 kts 143°
2026-04-26 13:35 -16.53190 -73.97477 37268 ft 450 kts 142°
2026-04-26 13:36 -16.58081 -73.93482 37270 ft 450 kts 142°
2026-04-26 13:36 -16.63009 -73.89454 37271 ft 450 kts 143°
2026-04-26 13:37 -16.67946 -73.85435 37268 ft 450 kts 143°
2026-04-26 13:37 -16.72876 -73.81401 37266 ft 450 kts 142°
2026-04-26 13:38 -16.77799 -73.77361 37263 ft 450 kts 142°
2026-04-26 13:38 -16.82723 -73.73334 37262 ft 449 kts 143°
2026-04-26 13:39 -16.87645 -73.69310 37260 ft 450 kts 143°
2026-04-26 13:39 -16.92566 -73.65275 37256 ft 450 kts 143°
2026-04-26 13:40 -16.97485 -73.61237 37253 ft 450 kts 143°
2026-04-26 13:40 -17.02396 -73.57195 37249 ft 449 kts 143°
2026-04-26 13:41 -17.07306 -73.53163 37243 ft 448 kts 143°
2026-04-26 13:41 -17.12203 -73.49138 37228 ft 448 kts 143°
2026-04-26 13:42 -17.17109 -73.45110 37227 ft 449 kts 143°
2026-04-26 13:42 -17.21978 -73.41098 37220 ft 448 kts 143°
2026-04-26 13:43 -17.26872 -73.37055 37220 ft 449 kts 143°
2026-04-26 13:43 -17.31773 -73.33015 37219 ft 448 kts 143°
2026-04-26 13:44 -17.36672 -73.28973 37224 ft 448 kts 143°
2026-04-26 13:44 -17.41569 -73.24931 37226 ft 448 kts 143°
2026-04-26 13:45 -17.46467 -73.20880 37226 ft 449 kts 143°
2026-04-26 13:45 -17.51371 -73.16834 37225 ft 449 kts 143°
2026-04-26 13:46 -17.56273 -73.12785 37217 ft 449 kts 143°
2026-04-26 13:46 -17.61171 -73.08729 37216 ft 448 kts 143°
2026-04-26 13:47 -17.66061 -73.04664 37210 ft 449 kts 142°
2026-04-26 13:47 -17.70957 -73.00611 37204 ft 449 kts 143°
2026-04-26 13:48 -17.75854 -72.96555 37118 ft 448 kts 143°
2026-04-26 13:48 -17.80703 -72.92526 37102 ft 448 kts 143°
2026-04-26 13:49 -17.85586 -72.88467 37083 ft 448 kts 143°
2026-04-26 13:49 -17.90467 -72.84405 37082 ft 448 kts 142°
2026-04-26 13:50 -17.95348 -72.80342 37077 ft 447 kts 142°
2026-04-26 13:50 -18.00226 -72.76280 37076 ft 447 kts 142°
2026-04-26 13:51 -18.05103 -72.72219 37064 ft 448 kts 143°
2026-04-26 13:51 -18.09983 -72.68149 37059 ft 448 kts 143°
2026-04-26 13:52 -18.14859 -72.64074 37056 ft 448 kts 142°
2026-04-26 13:52 -18.19737 -72.59989 37055 ft 448 kts 142°
2026-04-26 13:53 -18.24617 -72.55910 37056 ft 448 kts 143°
2026-04-26 13:53 -18.29495 -72.51841 37055 ft 447 kts 142°
2026-04-26 13:54 -18.34332 -72.47790 37050 ft 447 kts 142°
2026-04-26 13:54 -18.39203 -72.43712 37043 ft 447 kts 143°
2026-04-26 13:55 -18.45722 -72.38252 37045 ft 448 kts 142°
2026-04-26 13:56 -18.53814 -72.31462 37044 ft 447 kts 142°
2026-04-26 13:56 -18.58677 -72.27374 37041 ft 447 kts 142°
2026-04-26 13:57 -18.63545 -72.23292 37034 ft 447 kts 143°
2026-04-26 13:57 -18.68420 -72.19205 37033 ft 448 kts 143°
2026-04-26 13:58 -18.73288 -72.15113 37038 ft 448 kts 143°
2026-04-26 13:58 -18.78157 -72.11000 37037 ft 448 kts 143°
2026-04-26 13:59 -18.82996 -72.06926 37034 ft 448 kts 143°
2026-04-26 13:59 -18.87864 -72.02819 37035 ft 448 kts 143°
2026-04-26 14:00 -18.97604 -71.94602 37032 ft 448 kts 143°
2026-04-26 14:01 -19.02473 -71.90485 37033 ft 448 kts 143°
2026-04-26 14:01 -19.07346 -71.86363 37039 ft 449 kts 143°
2026-04-26 14:02 -19.12221 -71.82234 37037 ft 449 kts 143°
2026-04-26 14:02 -19.17099 -71.78101 37035 ft 449 kts 143°
2026-04-26 14:03 -19.21978 -71.73962 37042 ft 450 kts 143°
2026-04-26 14:03 -19.26858 -71.69820 37043 ft 450 kts 143°
2026-04-26 14:04 -19.31743 -71.65678 37049 ft 450 kts 143°
2026-04-26 14:04 -19.36624 -71.61526 37049 ft 450 kts 143°
2026-04-26 14:05 -19.41500 -71.57367 37058 ft 450 kts 143°
2026-04-26 14:05 -19.46385 -71.53215 37066 ft 450 kts 143°
2026-04-26 14:06 -19.51247 -71.49090 37074 ft 451 kts 143°
2026-04-26 14:06 -19.56140 -71.44927 37082 ft 451 kts 143°
2026-04-26 14:07 -19.61023 -71.40750 37093 ft 451 kts 143°
2026-04-26 14:07 -19.65913 -71.36568 37096 ft 452 kts 143°
2026-04-26 14:08 -19.70806 -71.32386 37102 ft 452 kts 143°
2026-04-26 14:08 -19.75700 -71.28201 37083 ft 452 kts 143°
2026-04-26 14:09 -19.80592 -71.24013 37077 ft 451 kts 143°
2026-04-26 14:09 -19.85475 -71.19822 37070 ft 451 kts 143°
2026-04-26 14:10 -19.90356 -71.15629 37068 ft 451 kts 143°
2026-04-26 14:10 -19.95241 -71.11444 37064 ft 451 kts 143°
2026-04-26 14:11 -20.02578 -71.05156 37061 ft 452 kts 143°
2026-04-26 14:11 -20.07467 -71.00952 37052 ft 452 kts 143°
2026-04-26 14:12 -20.12330 -70.96763 37052 ft 453 kts 143°
2026-04-26 14:12 -20.17231 -70.92539 37047 ft 454 kts 143°
2026-04-26 14:13 -20.24591 -70.86193 37048 ft 454 kts 143°
2026-04-26 14:14 -20.29499 -70.81959 37052 ft 454 kts 143°
2026-04-26 14:14 -20.34400 -70.77723 37056 ft 454 kts 143°
2026-04-26 14:15 -20.39298 -70.73480 37051 ft 454 kts 143°
2026-04-26 14:15 -20.44203 -70.69241 37055 ft 454 kts 143°
2026-04-26 14:16 -20.49107 -70.64994 37055 ft 454 kts 143°
2026-04-26 14:16 -20.54001 -70.60735 37058 ft 454 kts 143°
2026-04-26 14:17 -20.58892 -70.56480 37059 ft 453 kts 143°
2026-04-26 14:17 -20.63789 -70.52232 37058 ft 454 kts 143°
2026-04-26 14:18 -20.68696 -70.47980 37059 ft 454 kts 143°
2026-04-26 14:18 -20.73601 -70.43720 37062 ft 454 kts 143°
2026-04-26 14:19 -20.78502 -70.39452 37063 ft 454 kts 143°
2026-04-26 14:19 -20.83396 -70.35180 37063 ft 455 kts 143°
2026-04-26 14:20 -20.88290 -70.30898 37064 ft 454 kts 143°
2026-04-26 14:20 -20.93159 -70.26658 37065 ft 455 kts 143°
2026-04-26 14:21 -20.98551 -70.23306 37066 ft 445 kts 167°
2026-04-26 14:21 -21.01550 -70.22614 37066 ft 439 kts 178°
2026-04-26 14:21 -21.04586 -70.22464 37064 ft 435 kts 186°
2026-04-26 14:22 -21.10595 -70.22987 37064 ft 434 kts 188°
2026-04-26 14:22 -21.16615 -70.23503 37066 ft 434 kts 188°
2026-04-26 14:23 -21.22635 -70.24029 37075 ft 434 kts 189°
2026-04-26 14:23 -21.28651 -70.24592 37084 ft 434 kts 189°
2026-04-26 14:24 -21.34667 -70.25172 37091 ft 434 kts 189°
2026-04-26 14:24 -21.40682 -70.25746 37103 ft 434 kts 189°
2026-04-26 14:25 -21.46690 -70.26309 37107 ft 434 kts 189°
2026-04-26 14:25 -21.52703 -70.26868 37118 ft 434 kts 189°
2026-04-26 14:26 -21.57699 -70.27337 37125 ft 433 kts 189°
2026-04-26 14:26 -21.63705 -70.27911 37133 ft 433 kts 189°
2026-04-26 14:27 -21.69711 -70.28476 37143 ft 433 kts 189°
2026-04-26 14:27 -21.75718 -70.29044 37150 ft 433 kts 189°
2026-04-26 14:28 -21.81721 -70.29617 37151 ft 434 kts 189°
2026-04-26 14:28 -21.84746 -70.29908 36912 ft 437 kts 189°
2026-04-26 14:28 -21.87775 -70.30196 36664 ft 436 kts 189°
2026-04-26 14:28 -21.90797 -70.30478 36412 ft 435 kts 189°
2026-04-26 14:29 -21.93813 -70.30759 36161 ft 435 kts 189°
2026-04-26 14:29 -21.96830 -70.31044 35912 ft 435 kts 189°
2026-04-26 14:29 -21.99849 -70.31334 35662 ft 436 kts 189°
2026-04-26 14:29 -22.02874 -70.31625 35412 ft 437 kts 190°
2026-04-26 14:30 -22.05901 -70.31912 35161 ft 437 kts 190°
2026-04-26 14:30 -22.08926 -70.32198 34911 ft 435 kts 190°
2026-04-26 14:30 -22.11939 -70.32484 34659 ft 434 kts 190°
2026-04-26 14:30 -22.14933 -70.32767 34192 ft 431 kts 190°
2026-04-26 14:31 -22.17872 -70.33046 33666 ft 428 kts 190°
2026-04-26 14:31 -22.20834 -70.33325 33168 ft 426 kts 190°
2026-04-26 14:31 -22.23781 -70.33604 32647 ft 424 kts 190°
2026-04-26 14:31 -22.26750 -70.33888 32124 ft 421 kts 190°
2026-04-26 14:32 -22.29619 -70.34162 31627 ft 418 kts 189°
2026-04-26 14:32 -22.32509 -70.34438 31133 ft 416 kts 189°
2026-04-26 14:32 -22.35379 -70.34713 30639 ft 413 kts 189°
2026-04-26 14:32 -22.38230 -70.34983 30165 ft 409 kts 189°
2026-04-26 14:33 -22.41056 -70.35248 29699 ft 406 kts 189°
2026-04-26 14:33 -22.43857 -70.35510 29251 ft 402 kts 189°
2026-04-26 14:33 -22.46623 -70.35773 28802 ft 398 kts 189°
2026-04-26 14:33 -22.49366 -70.36035 28359 ft 394 kts 189°
2026-04-26 14:34 -22.52082 -70.36293 27926 ft 390 kts 189°
2026-04-26 14:34 -22.54768 -70.36548 27486 ft 386 kts 189°
2026-04-26 14:34 -22.57429 -70.36804 27049 ft 382 kts 189°
2026-04-26 14:34 -22.60067 -70.37058 26594 ft 379 kts 189°
2026-04-26 14:35 -22.62688 -70.37312 26141 ft 377 kts 189°
2026-04-26 14:35 -22.65287 -70.37562 25671 ft 374 kts 189°
2026-04-26 14:35 -22.67870 -70.37812 25204 ft 372 kts 189°
2026-04-26 14:35 -22.70441 -70.38060 24727 ft 370 kts 189°
2026-04-26 14:36 -22.72997 -70.38305 24246 ft 368 kts 189°
2026-04-26 14:36 -22.75542 -70.38549 23767 ft 366 kts 189°
2026-04-26 14:36 -22.78075 -70.38792 23278 ft 364 kts 189°
2026-04-26 14:36 -22.80593 -70.39032 22814 ft 362 kts 189°
2026-04-26 14:37 -22.83096 -70.39271 22353 ft 360 kts 188°
2026-04-26 14:37 -22.85554 -70.39509 21897 ft 358 kts 188°
2026-04-26 14:37 -22.88062 -70.39751 21433 ft 356 kts 188°
2026-04-26 14:37 -22.90491 -70.39984 20994 ft 354 kts 188°
2026-04-26 14:38 -22.92941 -70.40219 20557 ft 352 kts 188°
2026-04-26 14:38 -22.95378 -70.40453 20111 ft 350 kts 188°
2026-04-26 14:38 -22.97795 -70.40685 19670 ft 348 kts 188°
2026-04-26 14:38 -23.00200 -70.40920 19237 ft 346 kts 187°
2026-04-26 14:39 -23.02587 -70.41152 18810 ft 343 kts 187°
2026-04-26 14:39 -23.04955 -70.41379 18383 ft 341 kts 187°
2026-04-26 14:39 -23.07307 -70.41603 17959 ft 338 kts 187°
2026-04-26 14:39 -23.09643 -70.41826 17547 ft 335 kts 187°
2026-04-26 14:40 -23.11958 -70.42048 17152 ft 333 kts 187°
2026-04-26 14:40 -23.14247 -70.42268 16933 ft 325 kts 187°
2026-04-26 14:40 -23.16449 -70.42480 16746 ft 312 kts 187°
2026-04-26 14:40 -23.18588 -70.42686 16373 ft 306 kts 187°
2026-04-26 14:41 -23.20701 -70.42889 15910 ft 304 kts 187°
2026-04-26 14:41 -23.22806 -70.43094 15513 ft 303 kts 187°
2026-04-26 14:41 -23.24906 -70.43300 15166 ft 303 kts 186°
2026-04-26 14:41 -23.27000 -70.43506 14818 ft 302 kts 186°
2026-04-26 14:42 -23.29084 -70.43779 14469 ft 301 kts 195°
2026-04-26 14:42 -23.30962 -70.44729 14126 ft 299 kts 212°
2026-04-26 14:42 -23.32692 -70.45977 13764 ft 299 kts 214°
2026-04-26 14:42 -23.34403 -70.47255 13402 ft 298 kts 214°
2026-04-26 14:43 -23.36110 -70.48538 13061 ft 298 kts 214°
2026-04-26 14:43 -23.37802 -70.49815 12812 ft 294 kts 214°
2026-04-26 14:43 -23.39452 -70.51063 12511 ft 292 kts 214°
2026-04-26 14:43 -23.41115 -70.52326 12176 ft 291 kts 214°
2026-04-26 14:44 -23.42774 -70.53589 11814 ft 291 kts 214°
2026-04-26 14:44 -23.44433 -70.54857 11465 ft 291 kts 214°
2026-04-26 14:44 -23.46085 -70.56121 11127 ft 290 kts 214°
2026-04-26 14:44 -23.47728 -70.57380 10780 ft 289 kts 214°
2026-04-26 14:45 -23.49367 -70.58637 10438 ft 287 kts 214°
2026-04-26 14:45 -23.50446 -70.59467 10203 ft 287 kts 214°
2026-04-26 14:45 -23.52620 -70.61138 9741 ft 285 kts 214°
2026-04-26 14:45 -23.54235 -70.62388 9387 ft 284 kts 215°
2026-04-26 14:46 -23.55841 -70.63633 9032 ft 282 kts 215°
2026-04-26 14:46 -23.57434 -70.64870 8669 ft 281 kts 215°
2026-04-26 14:46 -23.59024 -70.66104 8284 ft 280 kts 215°
2026-04-26 14:46 -23.60606 -70.67334 7912 ft 278 kts 215°
2026-04-26 14:47 -23.62178 -70.68556 7543 ft 277 kts 215°
2026-04-26 14:47 -23.63821 -70.69611 7179 ft 274 kts 197°
2026-04-26 14:47 -23.65661 -70.69809 6827 ft 270 kts 169°
2026-04-26 14:47 -23.67433 -70.69183 6423 ft 268 kts 156°
2026-04-26 14:48 -23.69138 -70.68370 6118 ft 264 kts 155°
2026-04-26 14:48 -23.70755 -70.67524 5989 ft 252 kts 146°
2026-04-26 14:48 -23.71988 -70.66257 5866 ft 239 kts 123°
2026-04-26 14:48 -23.72637 -70.64638 5645 ft 231 kts 100°
2026-04-26 14:49 -23.72687 -70.62900 5335 ft 229 kts 86°
2026-04-26 14:49 -23.72588 -70.61166 5022 ft 228 kts 86°
2026-04-26 14:49 -23.72492 -70.59442 4720 ft 227 kts 86°
2026-04-26 14:49 -23.72399 -70.57730 4523 ft 225 kts 87°
2026-04-26 14:50 -23.72296 -70.56019 4505 ft 227 kts 82°
2026-04-26 14:50 -23.71644 -70.54490 4508 ft 226 kts 43°
2026-04-26 14:50 -23.70379 -70.53455 4505 ft 228 kts 40°
2026-04-26 14:50 -23.69413 -70.52099 4507 ft 228 kts 62°
2026-04-26 14:51 -23.68691 -70.50557 4512 ft 228 kts 64°
2026-04-26 14:51 -23.67965 -70.49023 4515 ft 228 kts 56°
2026-04-26 14:51 -23.66866 -70.47787 4401 ft 228 kts 34°
2026-04-26 14:51 -23.65435 -70.47100 4169 ft 225 kts 11°
2026-04-26 14:52 -23.63909 -70.46887 3926 ft 221 kts
2026-04-26 14:52 -23.62413 -70.46707 3638 ft 213 kts
2026-04-26 14:52 -23.60965 -70.46530 3349 ft 206 kts
2026-04-26 14:52 -23.59575 -70.46359 3061 ft 195 kts
2026-04-26 14:53 -23.58274 -70.46200 2831 ft 181 kts
2026-04-26 14:53 -23.57061 -70.46052 2584 ft 170 kts
2026-04-26 14:53 -23.55931 -70.45913 2389 ft 157 kts
2026-04-26 14:53 -23.54877 -70.45783 2160 ft 148 kts
2026-04-26 14:54 -23.53863 -70.45656 1998 ft 145 kts
2026-04-26 14:54 -23.52859 -70.45536 1897 ft 146 kts
2026-04-26 14:54 -23.51848 -70.45417 1600 ft 148 kts
2026-04-26 14:54 -23.50823 -70.45257 1247 ft 147 kts
2026-04-26 14:55 -23.49828 -70.45116 1004 ft 141 kts
2026-04-26 14:55 -23.48855 -70.45033 853 ft 140 kts
2026-04-26 14:55 -23.47893 -70.44909 741 ft 139 kts
2026-04-26 14:55 -23.46924 -70.44808 577 ft 141 kts
2026-04-26 14:56 -23.45947 -70.44689 392 ft 140 kts
2026-04-26 14:56 -23.45002 -70.44575 365 ft 125 kts
2026-04-26 14:56 -23.44435 -70.44518 383 ft 38 kts
2026-04-26 14:56 -23.44377 -70.44515 386 ft 0 kts